Location: Molveno
(46.1500°N, 10.9667°E)
Time: 01:40:57
(UTC+00:00)

Cosmos 1371 Rocket - Pass Details

Date: 05 July 2020
Orbit: 753 x 790 km, 74.0° (Epoch: 10 August)

Event Time Altitude Azimuth Distance (km) Brightness Sun altitude
Rises 22:35:07 0° 335° (NNW) 3,245 8.7 -20.4°
Reaches altitude 10° 22:37:31 10° 331° (NNW) 2,320 7.5 -20.5°
Maximum altitude 22:42:41 59° 254° (WSW) 893 4.2 -20.6°
Enters shadow 22:44:17 41° 197° (SSW) 1,113 4.4 -20.7°
